DLH4KX EDDM-EPKK

Flight info

Callsign DLH4KX
Flight time N/A
Altitude 30000
Route BIBAG3S/26L BIBAG Y133 BEPAS/N0414F330 DCT NELPA DCT PADKA
Aircraft A21N/M-SDE2E3FGHIRWXY/LB1

Departure

Time 2026-05-05 17:10
Airport Munich Airport (EDDM)

Arrival

Time N/A
Airport Kraków John Paul II International Airport (EPKK)
Time Latitude Longitude Altitude Speed Heading
2026-05-05 16:26 48.35666 11.79949 1478 ft 0 kts 263°
2026-05-05 16:28 48.35666 11.79950 1478 ft 0 kts 263°
2026-05-05 16:48 48.35668 11.79979 1491 ft 3 kts 263°
2026-05-05 16:48 48.35671 11.80012 1491 ft 3 kts 264°
2026-05-05 16:49 48.35674 11.80041 1491 ft 3 kts 248°
2026-05-05 16:49 48.35685 11.80068 1491 ft 3 kts 220°
2026-05-05 16:49 48.35703 11.80084 1485 ft 3 kts 200°
2026-05-05 16:49 48.35704 11.80085 1483 ft 2 kts 200°
2026-05-05 16:50 48.35699 11.80082 1487 ft 2 kts 200°
2026-05-05 16:50 48.35686 11.80075 1480 ft 2 kts 200°
2026-05-05 16:50 48.35686 11.80074 1481 ft 0 kts 200°
2026-05-05 16:58 48.35679 11.80077 1491 ft 3 kts 157°
2026-05-05 16:58 48.35653 11.80100 1483 ft 6 kts 146°
2026-05-05 16:59 48.35608 11.80133 1491 ft 9 kts 164°
2026-05-05 16:59 48.35539 11.80148 1482 ft 11 kts 174°
2026-05-05 16:59 48.35452 11.80160 1491 ft 14 kts 175°
2026-05-05 16:59 48.35385 11.80184 1480 ft 12 kts 160°
2026-05-05 17:00 48.35303 11.80201 1484 ft 13 kts 172°
2026-05-05 17:00 48.35232 11.80215 1491 ft 3 kts 173°
2026-05-05 17:00 48.35196 11.80221 1491 ft 7 kts 175°
2026-05-05 17:00 48.35171 11.80225 1491 ft 0 kts 174°
2026-05-05 17:01 48.35157 11.80227 1488 ft 6 kts 174°
2026-05-05 17:01 48.35144 11.80226 1491 ft 4 kts 196°
2026-05-05 17:01 48.35108 11.80171 1480 ft 11 kts 253°
2026-05-05 17:01 48.35097 11.80026 1487 ft 17 kts 263°
2026-05-05 17:02 48.35080 11.79829 1491 ft 15 kts 263°
2026-05-05 17:02 48.35069 11.79712 1491 ft 7 kts 237°
2026-05-05 17:02 48.35036 11.79670 1491 ft 6 kts 197°
2026-05-05 17:02 48.34997 11.79670 1483 ft 0 kts 172°
2026-05-05 17:03 48.34989 11.79672 1491 ft 3 kts 172°
2026-05-05 17:03 48.34961 11.79676 1491 ft 5 kts 176°
2026-05-05 17:04 48.34953 11.79677 1491 ft 0 kts 175°
2026-05-05 17:05 48.34867 11.79681 1522 ft 0 kts 174°
2026-05-05 17:05 48.34868 11.79694 1491 ft 0 kts 174°
2026-05-05 17:05 48.34866 11.79694 1491 ft 0 kts 174°
2026-05-05 17:05 48.34861 11.79695 1483 ft 3 kts 174°
2026-05-05 17:06 48.34830 11.79703 1481 ft 6 kts 166°
2026-05-05 17:06 48.34805 11.79753 1488 ft 8 kts 90°
2026-05-05 17:06 48.34814 11.79852 1485 ft 11 kts 82°
2026-05-05 17:06 48.34826 11.79992 1484 ft 15 kts 83°
2026-05-05 17:07 48.34821 11.80151 1484 ft 16 kts 123°
2026-05-05 17:07 48.34751 11.80242 1491 ft 12 kts 167°
2026-05-05 17:07 48.34675 11.80252 1491 ft 0 kts 172°
2026-05-05 17:08 48.34650 11.80257 1491 ft 7 kts 172°
2026-05-05 17:08 48.34575 11.80272 1482 ft 15 kts 173°
2026-05-05 17:08 48.34498 11.80276 1479 ft 3 kts 185°
2026-05-05 17:09 48.34474 11.80259 1485 ft 7 kts 226°
2026-05-05 17:09 48.34459 11.80192 1481 ft 4 kts 268°
2026-05-05 17:09 48.34459 11.80187 1491 ft 0 kts 267°
2026-05-05 17:10 48.34456 11.80127 1491 ft 33 kts 264°
2026-05-05 17:10 48.34390 11.79293 1491 ft 125 kts 263°
2026-05-05 17:10 48.34263 11.77608 1579 ft 191 kts 264°
2026-05-05 17:10 48.34118 11.75532 2577 ft 203 kts 264°
2026-05-05 17:11 48.33893 11.73519 4004 ft 187 kts 252°
2026-05-05 17:11 48.33226 11.71958 5148 ft 172 kts 226°
2026-05-05 17:11 48.32267 11.70982 5979 ft 166 kts 198°
2026-05-05 17:11 48.31094 11.70777 6445 ft 180 kts 181°
2026-05-05 17:12 48.29725 11.70787 6707 ft 215 kts 178°
2026-05-05 17:12 48.28163 11.71324 6781 ft 249 kts 153°
2026-05-05 17:12 48.26584 11.72803 6841 ft 280 kts 144°
2026-05-05 17:12 48.24995 11.74486 7439 ft 283 kts 144°
2026-05-05 17:13 48.23350 11.76202 8360 ft 288 kts 145°
2026-05-05 17:13 48.21693 11.77909 9286 ft 291 kts 145°
2026-05-05 17:13 48.20039 11.79671 10179 ft 293 kts 139°
2026-05-05 17:13 48.19151 11.81043 10747 ft 293 kts 126°
2026-05-05 17:14 48.18473 11.82930 11414 ft 294 kts 110°
2026-05-05 17:14 48.18194 11.85980 12272 ft 301 kts 90°
2026-05-05 17:14 48.18412 11.89145 13036 ft 309 kts 85°
2026-05-05 17:15 48.18693 11.92359 13801 ft 314 kts 85°
2026-05-05 17:15 48.18963 11.95635 14581 ft 319 kts 86°
2026-05-05 17:15 48.19219 11.98957 15348 ft 323 kts 86°
2026-05-05 17:15 48.19468 12.02322 16097 ft 327 kts 86°
2026-05-05 17:16 48.19713 12.05737 16819 ft 331 kts 86°
2026-05-05 17:16 48.19956 12.09190 17531 ft 335 kts 86°
2026-05-05 17:16 48.20197 12.12688 18228 ft 340 kts 86°
2026-05-05 17:16 48.20455 12.16228 18887 ft 346 kts 83°
2026-05-05 17:17 48.21201 12.19732 19233 ft 364 kts 64°
2026-05-05 17:17 48.22684 12.22907 19569 ft 380 kts 52°
2026-05-05 17:17 48.24400 12.25971 20070 ft 387 kts 51°
2026-05-05 17:17 48.26142 12.29086 20689 ft 391 kts 51°
2026-05-05 17:18 48.27884 12.32260 21308 ft 395 kts 52°
2026-05-05 17:18 48.29625 12.35476 21910 ft 399 kts 52°
2026-05-05 17:18 48.31374 12.38733 22499 ft 402 kts 52°
2026-05-05 17:18 48.33134 12.42028 23070 ft 406 kts 52°
2026-05-05 17:19 48.34904 12.45351 23631 ft 409 kts 53°
2026-05-05 17:19 48.36685 12.48710 24160 ft 413 kts 53°
2026-05-05 17:19 48.38482 12.52094 24692 ft 416 kts 53°